Tracking 19489 objects as of 22-Jan-2019
HD Live streaming from Space Station
objects crossing your sky now

COSMOS 2291

Track COSMOS 2291 now!
COSMOS 2291 is classified as:


NORAD ID: 23267
Int'l Code: 1994-060A
Perigee: 35,799.2 km
Apogee: 35,815.8 km
Inclination: 14.7 °
Period: 1,436.8 minutes
Semi major axis: 42178 km
RCS: 5.0118 m2 (large)
Launch date: September 21, 1994
Source: Commonwealth of Independent States (former USSR) (CIS)
Launch site: TYURATAM MISSILE AND SPACE COMPLEX (TTMTR)
aabbcc
Your satellite tracking list
Your tracking list is empty




NASA's NSSDC Master Catalog

Two Line Element Set (TLE):
1 23267U 94060A   19021.32309894 -.00000348 +00000-0 +00000-0 0  9996
2 23267 014.7316 011.9061 0001957 231.1686 126.5140 01.00222749089127
Source of the keplerian elements: AFSPC